| time (UTC) | temp F | wind direction | speed knots | gust knots | rain 1hr in | rain 24hr in | rain mn in | humidity % | barometer mb |
| 20260506034512 | 62 | 56 | 0.0 | 1.7 | 0.00 | 0.04 | 0.00 | 53 | 1010.5 |
| 20260506033012 | 62 | 356 | 3.5 | 7.0 | 0.00 | 0.04 | 0.00 | 52 | 1010.1 |
| 20260506031511 | 62 | 335 | 4.3 | 7.0 | 0.00 | 0.04 | 0.00 | 52 | 1009.8 |
| 20260506030012 | 62 | 316 | 1.7 | 9.6 | 0.00 | 0.04 | 0.00 | 53 | 1009.8 |
| 20260506024510 | 63 | 323 | 6.1 | 9.6 | 0.00 | 0.06 | 0.00 | 52 | 1009.6 |
| 20260506023009 | 65 | 311 | 6.1 | 10.4 | 0.00 | 0.06 | 0.00 | 49 | 1009.6 |
| 20260506021516 | 67 | 300 | 4.3 | 8.7 | 0.00 | 0.06 | 0.00 | 45 | 1009.4 |
| 20260506020007 | 66 | 302 | 0.0 | 6.1 | 0.00 | 0.06 | 0.00 | 43 | 1009.5 |
| 20260506014507 | 67 | 342 | 0.0 | 7.8 | 0.00 | 0.23 | 0.00 | 40 | 1009.3 |
| 20260506013006 | 68 | 297 | 1.7 | 7.0 | 0.00 | 0.23 | 0.00 | 39 | 1009.4 |
| 20260506011504 | 69 | 326 | 0.0 | 4.3 | 0.00 | 0.23 | 0.00 | 37 | 1009.6 |
| 20260506010002 | 69 | 319 | 0.9 | 6.1 | 0.00 | 0.23 | 0.00 | 39 | 1009.6 |
| 20260506004604 | 68 | 272 | 0.9 | 6.1 | 0.00 | 0.27 | 0.00 | 39 | 1009.7 |
| 20260506003058 | 67 | 341 | 0.0 | 1.7 | 0.00 | 0.27 | 0.00 | 42 | 1009.7 |
| 20260506001559 | 68 | 315 | 3.5 | 7.0 | 0.00 | 0.27 | 0.00 | 42 | 1009.6 |
| 20260506000057 | 69 | 343 | 4.3 | 7.8 | 0.00 | 0.27 | 0.00 | 42 | 1009.7 |
| 20260505234607 | 68 | 86 | 0.0 | 6.1 | 0.00 | 0.27 | 0.00 | 41 | 1009.8 |
| 20260505233052 | 67 | 311 | 0.0 | 7.0 | 0.00 | 0.27 | 0.00 | 42 | 1009.9 |
| 20260505231550 | 68 | 245 | 0.0 | 6.1 | 0.00 | 0.27 | 0.00 | 44 | 1010.0 |
| 20260505230049 | 68 | 304 | 5.2 | 10.4 | 0.00 | 0.27 | 0.00 | 44 | 1010.1 |
| 20260505224548 | 67 | 41 | 0.0 | 4.3 | 0.00 | 0.27 | 0.00 | 41 | 1010.4 |
| 20260505223046 | 67 | 302 | 0.0 | 9.6 | 0.00 | 0.27 | 0.00 | 43 | 1010.6 |
| 20260505221544 | 66 | 101 | 4.3 | 8.7 | 0.00 | 0.27 | 0.00 | 43 | 1010.8 |
| 20260505220042 | 65 | 335 | 0.0 | 1.7 | 0.00 | 0.27 | 0.00 | 43 | 1011.1 |
| 20260505214600 | 65 | 356 | 0.0 | 7.0 | 0.00 | 0.27 | 0.00 | 48 | 1011.2 |
| 20260505213042 | 63 | 224 | 0.0 | 9.6 | 0.00 | 0.27 | 0.00 | 53 | 1011.4 |
| 20260505211535 | 64 | 224 | 0.0 | 0.0 | 0.00 | 0.27 | 0.00 | 53 | 1011.4 |
| 20260505210033 | 61 | 132 | 0.0 | 3.5 | 0.00 | 0.27 | 0.00 | 57 | 1011.6 |
| 20260505204532 | 61 | 314 | 1.7 | 5.2 | 0.00 | 0.30 | 0.00 | 57 | 1011.7 |
| 20260505203037 | 62 | 309 | 0.0 | 0.9 | 0.00 | 0.30 | 0.00 | 56 | 1011.7 |
| 20260505201536 | 63 | 85 | 0.0 | 5.2 | 0.00 | 0.30 | 0.00 | 54 | 1011.8 |
| 20260505200028 | 62 | 136 | 0.0 | 3.5 | 0.00 | 0.30 | 0.00 | 56 | 1011.9 |
| 20260505194526 | 61 | 70 | 2.6 | 5.2 | 0.00 | 0.30 | 0.00 | 61 | 1012.1 |
| 20260505193023 | 58 | 26 | 0.9 | 4.3 | 0.00 | 0.30 | 0.00 | 62 | 1012.2 |
| 20260505191522 | 58 | 66 | 0.0 | 5.2 | 0.00 | 0.30 | 0.00 | 65 | 1012.2 |
| 20260505190022 | 58 | 108 | 0.0 | 3.5 | 0.00 | 0.30 | 0.00 | 66 | 1012.2 |
| 20260505184517 | 56 | 59 | 0.9 | 5.2 | 0.00 | 0.30 | 0.00 | 66 | 1012.2 |
| 20260505183019 | 56 | 27 | 1.7 | 4.3 | 0.00 | 0.30 | 0.00 | 66 | 1012.2 |
| 20260505181514 | 54 | 314 | 0.0 | 5.2 | 0.00 | 0.30 | 0.00 | 72 | 1012.4 |
| 20260505180011 | 53 | 46 | 2.6 | 6.1 | 0.00 | 0.30 | 0.00 | 72 | 1012.2 |
| 20260505174513 | 53 | 43 | 1.7 | 5.2 | 0.00 | 0.30 | 0.00 | 74 | 1012.1 |
| 20260505173011 | 52 | 23 | 2.6 | 7.8 | 0.00 | 0.30 | 0.00 | 73 | 1011.9 |
| 20260505171504 | 52 | 331 | 3.5 | 8.7 | 0.00 | 0.30 | 0.00 | 75 | 1011.8 |
| 20260505170004 | 52 | 6 | 3.5 | 8.7 | 0.00 | 0.30 | 0.00 | 76 | 1011.8 |
| 20260505164501 | 51 | 330 | 1.7 | 6.1 | 0.00 | 0.31 | 0.00 | 79 | 1011.7 |
| 20260505163059 | 50 | 314 | 1.7 | 7.0 | 0.00 | 0.31 | 0.00 | 83 | 1011.6 |
| 20260505161610 | 49 | 356 | 0.0 | 5.2 | 0.00 | 0.31 | 0.00 | 82 | 1011.7 |
| 20260505153047 | 47 | 347 | 3.5 | 6.1 | 0.00 | 0.31 | 0.00 | 86 | 1011.3 |
| 20260505151543 | 46 | 307 | 0.9 | 4.3 | 0.00 | 0.31 | 0.00 | 87 | 1011.1 |
| 20260505124532 | 43 | 333 | 0.9 | 7.0 | 0.00 | 0.31 | 0.00 | 88 | 1009.7 |
| 20260505123025 | 43 | 347 | 2.6 | 7.8 | 0.00 | 0.31 | 0.00 | 89 | 1009.5 |
| 20260505121524 | 43 | 335 | 3.5 | 7.0 | 0.00 | 0.31 | 0.00 | 90 | 1009.6 |
| 20260505120028 | 43 | 337 | 1.7 | 5.2 | 0.00 | 0.31 | 0.00 | 90 | 1009.6 |
| 20260505114523 | 42 | 344 | 1.7 | 5.2 | 0.00 | 0.31 | 0.00 | 90 | 1009.4 |
| 20260505113024 | 43 | 24 | 2.6 | 7.0 | 0.00 | 0.31 | 0.00 | 89 | 1009.4 |
| 20260505111521 | 43 | 323 | 2.6 | 7.8 | 0.00 | 0.31 | 0.00 | 89 | 1009.4 |
| 20260505101529 | 43 | 313 | 4.3 | 7.0 | 0.00 | 0.31 | 0.00 | 89 | 1009.7 |
| 20260505100114 | 42 | 330 | 0.0 | 0.0 | 0.00 | 0.31 | 0.00 | 90 | 1009.8 |
| 20260505094513 | 41 | 330 | 0.0 | 1.7 | 0.00 | 0.31 | 0.00 | 90 | 1009.9 |
| 20260505093022 | 41 | 335 | 3.5 | 5.2 | 0.00 | 0.31 | 0.00 | 90 | 1009.8 |
| 20260505091511 | 41 | 356 | 0.9 | 4.3 | 0.00 | 0.31 | 0.00 | 90 | 1009.8 |
| 20260505090011 | 42 | 354 | 0.9 | 6.1 | 0.00 | 0.31 | 0.00 | 89 | 1009.9 |
| 20260505084509 | 42 | 30 | 1.7 | 7.8 | 0.00 | 0.31 | 0.00 | 90 | 1009.8 |
| 20260505083011 | 42 | 333 | 6.1 | 11.3 | 0.00 | 0.31 | 0.00 | 90 | 1009.9 |
| 20260505081508 | 42 | 330 | 6.1 | 9.6 | 0.00 | 0.31 | 0.00 | 92 | 1010.1 |
| 20260505080001 | 42 | 293 | 3.5 | 7.8 | 0.00 | 0.31 | 0.00 | 94 | 1010.3 |
| 20260505074501 | 42 | 316 | 0.0 | 4.3 | 0.00 | 0.31 | 0.00 | 94 | 1010.2 |
| 20260505073100 | 42 | 262 | 2.6 | 4.3 | 0.00 | 0.31 | 0.00 | 94 | 1010.2 |
| 20260505071605 | 42 | 314 | 2.6 | 6.1 | 0.00 | 0.31 | 0.00 | 94 | 1010.4 |
| 20260505070056 | 42 | 262 | 2.6 | 7.8 | 0.00 | 0.31 | 0.00 | 94 | 1010.1 |
| 20260505064553 | 42 | 325 | 5.2 | 8.7 | 0.00 | 0.31 | 0.31 | 94 | 1009.9 |
| 20260505063119 | 42 | 318 | 1.7 | 6.1 | 0.00 | 0.31 | 0.31 | 94 | 1009.4 |
| 20260505061618 | 42 | 341 | 1.7 | 5.2 | 0.00 | 0.31 | 0.31 | 94 | 1008.7 |
| 20260505060100 | 42 | 342 | 2.6 | 7.0 | 0.00 | 0.31 | 0.31 | 94 | 1009.0 |
| 20260505054549 | 42 | 314 | 5.2 | 14.8 | 0.00 | 0.31 | 0.31 | 94 | 1009.1 |
| 20260505053046 | 42 | 297 | 7.8 | 14.8 | 0.01 | 0.31 | 0.31 | 94 | 1009.4 |
| 20260505051607 | 43 | 324 | 7.0 | 13.0 | 0.01 | 0.31 | 0.31 | 94 | 1009.1 |
| 20260505041548 | 44 | 39 | 3.5 | 8.7 | 0.02 | 0.30 | 0.30 | 94 | 1009.0 |
| 20260505040041 | 44 | 298 | 5.2 | 10.4 | 0.03 | 0.30 | 0.30 | 94 | 1008.7 |